When you browse on this site, cookies collect data to enhance your experience and personalize the content and advertising you see.
Visit our Privacy Policy to learn more. By continuing to use the site, you agree to this use of cookies and data.
  • In Netherlands
  • List of Countries
  • For 7 days
  • Water Temperature
  • Weather Map
  • Weather Widgets
  • user-avatar
    Login

    Hourly Weather Tibissa

    Today, 22 February, Saturday

    Time Temperature Precipitation Wind Pressure Humidity
    00:00 +8°C° 0 mm 1 mps 691 mmHg 66%
    01:00 +7°C° 0 mm 2 mps 691 mmHg 70%
    02:00 +6°C° 0 mm 2 mps 691 mmHg 70%
    03:00 +6°C° 0 mm 2 mps 690 mmHg 70%
    04:00 +5°C° 0 mm 2 mps 690 mmHg 71%
    05:00 +5°C° 0 mm 2 mps 690 mmHg 70%
    06:00 +5°C° 0 mm 2 mps 691 mmHg 69%
    07:00 +5°C° 0 mm 2 mps 691 mmHg 67%
    08:00 +7°C° 0 mm 3 mps 692 mmHg 58%
    09:00 +7°C° 0 mm 4 mps 692 mmHg 50%
    10:00 +10°C° 0 mm 4 mps 693 mmHg 41%
    11:00 +10°C° 0 mm 5 mps 693 mmHg 37%
    12:00 +12°C° 0 mm 5 mps 693 mmHg 34%
    13:00 +14°C° 0 mm 6 mps 694 mmHg 31%
    14:00 +13°C° 0 mm 6 mps 694 mmHg 34%
    15:00 +13°C° 0 mm 6 mps 693 mmHg 37%
    16:00 +12°C° 0 mm 7 mps 693 mmHg 40%
    17:00 +11°C° 0 mm 6 mps 693 mmHg 51%
    18:00 +9°C° 0 mm 5 mps 693 mmHg 62%
    19:00 +8°C° 0 mm 4 mps 693 mmHg 73%
    20:00 +7°C° 0 mm 4 mps 694 mmHg 78%
    21:00 +7°C° 0 mm 3 mps 694 mmHg 83%
    22:00 +7°C° 0 mm 2 mps 694 mmHg 88%
    23:00 +6°C° 0 mm 2 mps 694 mmHg 89%

    Tomorrow, 23 February, Sunday

    Time Temperature Precipitation Wind Pressure Humidity
    00:00 +6°C° 0 mm 2 mps 694 mmHg 90%
    01:00 +6°C° 0 mm 2 mps 694 mmHg 91%
    02:00 +6°C° 0 mm 1 mps 694 mmHg 91%
    03:00 +6°C° 0 mm 1 mps 694 mmHg 91%
    04:00 +5°C° 0 mm 1 mps 693 mmHg 92%
    05:00 +5°C° 0 mm 1 mps 693 mmHg 90%
    06:00 +5°C° 0 mm 1 mps 693 mmHg 88%
    07:00 +5°C° 0 mm 1 mps 693 mmHg 86%
    08:00 +7°C° 0 mm 1 mps 694 mmHg 75%
    09:00 +8°C° 0 mm 1 mps 695 mmHg 65%
    10:00 +10°C° 0 mm 1 mps 696 mmHg 54%
    11:00 +12°C° 0 mm 1 mps 696 mmHg 46%
    12:00 +14°C° 0 mm 2 mps 696 mmHg 37%
    13:00 +16°C° 0 mm 2 mps 696 mmHg 28%
    14:00 +17°C° 0 mm 2 mps 695 mmHg 26%
    15:00 +17°C° 0 mm 2 mps 695 mmHg 25%
    16:00 +18°C° 0 mm 3 mps 695 mmHg 24%
    17:00 +16°C° 0 mm 2 mps 695 mmHg 29%
    18:00 +15°C° 0 mm 2 mps 694 mmHg 35%
    19:00 +13°C° 0 mm 1 mps 694 mmHg 40%
    20:00 +12°C° 0 mm 1 mps 694 mmHg 44%
    21:00 +12°C° 0 mm 1 mps 694 mmHg 49%
    22:00 +11°C° 0 mm 1 mps 694 mmHg 53%
    23:00 +10°C° 0 mm 1 mps 693 mmHg 54%

    Day after tomorrow, 24 February, Monday

    Time Temperature Precipitation Wind Pressure Humidity
    00:00 +10°C° 0 mm 1 mps 693 mmHg 56%
    01:00 +9°C° 0 mm 1 mps 693 mmHg 57%
    02:00 +9°C° 0 mm 1 mps 693 mmHg 56%
    03:00 +9°C° 0 mm 1 mps 692 mmHg 56%
    04:00 +9°C° 0 mm 1 mps 692 mmHg 55%
    05:00 +8°C° 0 mm 1 mps 691 mmHg 54%
    06:00 +8°C° 0 mm 1 mps 691 mmHg 53%
    07:00 +8°C° 0 mm 1 mps 691 mmHg 53%
    08:00 +11°C° 0 mm 1 mps 692 mmHg 45%
    09:00 +13°C° 0 mm 2 mps 692 mmHg 38%
    10:00 +16°C° 0 mm 2 mps 693 mmHg 31%
    11:00 +17°C° 0 mm 2 mps 693 mmHg 28%
    12:00 +18°C° 0 mm 3 mps 692 mmHg 25%
    13:00 +19°C° 0 mm 3 mps 692 mmHg 22%
    14:00 +19°C° 0 mm 3 mps 692 mmHg 22%
    15:00 +20°C° 0 mm 3 mps 691 mmHg 22%
    16:00 +20°C° 0 mm 3 mps 691 mmHg 21%
    17:00 +18°C° 0 mm 2 mps 691 mmHg 26%
    18:00 +16°C° 0 mm 2 mps 690 mmHg 32%
    19:00 +15°C° 0 mm 1 mps 690 mmHg 37%
    20:00 +14°C° 0 mm 1 mps 690 mmHg 40%
    21:00 +12°C° 0 mm 0 mps 690 mmHg 43%
    22:00 +11°C° 0 mm 0 mps 690 mmHg 45%
    23:00 +11°C° 0 mm 0 mps 689 mmHg 45%

    25 February, Tuesday

    Time Temperature Precipitation Wind Pressure Humidity
    00:00 +10°C° 0 mm 0 mps 689 mmHg 45%
    01:00 +11°C° 0 mm 1 mps 689 mmHg 45%
    02:00 +11°C° 0 mm 1 mps 688 mmHg 45%
    03:00 +10°C° 0 mm 1 mps 688 mmHg 44%
    04:00 +10°C° 0 mm 1 mps 687 mmHg 44%
    05:00 +10°C° 0 mm 1 mps 687 mmHg 45%
    06:00 +10°C° 0 mm 1 mps 687 mmHg 46%
    07:00 +9°C° 0 mm 2 mps 687 mmHg 47%
    08:00 +12°C° 0 mm 2 mps 687 mmHg 42%
    09:00 +14°C° 0 mm 2 mps 688 mmHg 37%
    10:00 +17°C° 0 mm 2 mps 689 mmHg 32%
    11:00 +18°C° 0 mm 3 mps 688 mmHg 30%
    12:00 +19°C° 0 mm 3 mps 688 mmHg 27%
    13:00 +20°C° 0 mm 3 mps 688 mmHg 24%
    14:00 +20°C° 0 mm 4 mps 687 mmHg 23%
    15:00 +21°C° 0 mm 4 mps 687 mmHg 22%
    16:00 +21°C° 0 mm 4 mps 686 mmHg 21%
    17:00 +19°C° 0 mm 4 mps 686 mmHg 27%
    18:00 +17°C° 0 mm 3 mps 686 mmHg 32%
    19:00 +15°C° 0 mm 2 mps 685 mmHg 37%
    20:00 +14°C° 0 mm 2 mps 685 mmHg 39%
    21:00 +14°C° 0 mm 2 mps 685 mmHg 41%
    22:00 +13°C° 0 mm 2 mps 685 mmHg 43%
    23:00 +13°C° 0 mm 2 mps 685 mmHg 45%

    26 February, Wednesday

    Time Temperature Precipitation Wind Pressure Humidity
    00:00 +12°C° 0 mm 2 mps 685 mmHg 47%
    01:00 +10°C° 0 mm 2 mps 684 mmHg 49%
    02:00 +11°C° 0 mm 1 mps 684 mmHg 53%
    03:00 +10°C° 0 mm 1 mps 684 mmHg 56%
    04:00 +9°C° 0 mm 1 mps 683 mmHg 59%
    05:00 +9°C° 0 mm 1 mps 683 mmHg 59%
    06:00 +8°C° 0 mm 2 mps 683 mmHg 59%
    07:00 +8°C° 0 mm 2 mps 683 mmHg 59%
    08:00 +10°C° 0 mm 3 mps 684 mmHg 53%
    09:00 +11°C° 0 mm 4 mps 684 mmHg 48%
    10:00 +13°C° 0 mm 6 mps 685 mmHg 42%
    11:00 +14°C° 0 mm 6 mps 685 mmHg 39%
    12:00 +15°C° 0 mm 6 mps 685 mmHg 36%
    13:00 +16°C° 0 mm 6 mps 685 mmHg 33%
    14:00 +16°C° 0 mm 6 mps 684 mmHg 33%
    15:00 +16°C° 0 mm 7 mps 684 mmHg 33%
    16:00 +16°C° 0 mm 7 mps 683 mmHg 33%
    17:00 +14°C° 0 mm 7 mps 684 mmHg 42%
    18:00 +12°C° 0 mm 7 mps 684 mmHg 52%
    19:00 +10°C° 0 mm 7 mps 684 mmHg 61%
    20:00 +9°C° 0 mm 8 mps 684 mmHg 66%
    21:00 +7°C° 0 mm 8 mps 684 mmHg 71%
    22:00 +6°C° 0 mm 9 mps 684 mmHg 77%
    23:00 +5°C° 0 mm 9 mps 684 mmHg 77%

    27 February, Thursday

    Time Temperature Precipitation Wind Pressure Humidity
    00:00 +3°C° 0 mm 9 mps 685 mmHg 77%
    01:00 +3°C° 0 mm 9 mps 685 mmHg 76%
    02:00 +3°C° 0 mm 10 mps 685 mmHg 79%
    03:00 +2°C° 0 mm 10 mps 685 mmHg 81%
    04:00 +2°C° 0 mm 10 mps 685 mmHg 83%
    05:00 +2°C° 0 mm 10 mps 685 mmHg 83%
    06:00 +2°C° 0 mm 10 mps 685 mmHg 82%
    07:00 +2°C° 0 mm 10 mps 686 mmHg 82%
    08:00 +2°C° 0 mm 10 mps 686 mmHg 77%
    09:00 +3°C° 0 mm 10 mps 687 mmHg 71%
    10:00 +5°C° 0 mm 10 mps 688 mmHg 66%
    11:00 +6°C° 0 mm 10 mps 688 mmHg 61%
    12:00 +7°C° 0 mm 10 mps 688 mmHg 57%
    13:00 +8°C° 0 mm 10 mps 688 mmHg 53%
    14:00 +8°C° 0 mm 9 mps 688 mmHg 52%
    15:00 +8°C° 0 mm 9 mps 688 mmHg 50%
    16:00 +9°C° 0 mm 8 mps 688 mmHg 49%
    17:00 +8°C° 0 mm 7 mps 689 mmHg 55%
    18:00 +7°C° 0 mm 6 mps 689 mmHg 61%
    19:00 +6°C° 0 mm 4 mps 689 mmHg 67%
    20:00 +5°C° 0 mm 4 mps 689 mmHg 73%
    21:00 +4°C° 0 mm 3 mps 689 mmHg 79%
    22:00 +5°C° 0 mm 2 mps 690 mmHg 85%
    23:00 +4°C° 0 mm 2 mps 690 mmHg 86%
    Show more